www.pogodaiklimat.ru

Погода и климат >> Архив погоды >> Украина >> Гайсин


ПОГОДА в Гайсине

  • Прогноз погоды в Гайсине
  • Монитор погоды в Гайсине

АРХИВ ПОГОДЫ в Гайсине

Время (UTC), дата Ветер
(напр.,м/с)
 
Видим.   Явления Облачность Т
(С)
Тd
(С)
f
(%)
Тe
(С)
Тes
(С)
Комфортность P
(гПа)
Po
(гПа)
Тmin
(С)
Tmax
(С)
R
(мм)
R24
(мм)
S
(см)
06 15.08 СЗ 3 4000 м слаб. ливневой дождь 10/8 600 м
[Cb calv Ac und]
+16.3 +14.3 88 +16 +16 1010.0 985.2 +16.1 0.0
09 15.08 СЗ 4 10 км 10/6 600 м
[Sc Ac und]
+16.9 +13.6 81 +16 +16 1012.0 987.2
12 15.08 СЗ 5 10 км 10/4 600 м
[Sc Ac und]
+17.1 +13.0 77 +16 +16 1012.0 987.2
15 15.08 СЗ 4 10 км 10/3 600 м
[Sc Ac und]
+17.5 +12.8 74 +17 +17 1012.0 987.3
18 15.08 СЗ 3 10 км 10/4 600 м
[Sc Ac und]
+16.1 +12.1 77 +16 +16 1012.0 987.2 +17.7
21 15.08 СЗ 3 10 км 10/3 600 м
[Sc Ac und]
+14.9 +12.2 84 +14 +14 1013.0 988.0
00 16.08 С 3 10 км 10/3 600 м
[Sc Ac und]
+14.6 +12.8 89 +14 +14 1013.0 988.0
03 16.08 СЗ 2 10 км 10/0
[Ac und]
+14.4 +12.6 89 +14 +14 1013.0 988.0
06 16.08 СЗ 3 10 км 9/8 600 м
[Sc Ac trans]
+16.3 +12.3 77 +16 +16 1012.0 987.2 +14.2
09 16.08 СЗ 4 10 км 8/6 600 м
[Sc Ac trans Ci fib]
+18.9 +11.0 60 +20 +20 1012.0 987.4
12 16.08 СЗ 5 10 км 9/4 600 м
[Sc Ac trans]
+20.7 +10.2 51 +22 +22 комфорт 1012.0 987.5
15 16.08 С 4 10 км 8/4 600 м
[Sc Ac trans]
+20.9 +9.8 49 +23 +23 комфорт 1012.0 987.5
18 16.08 СЗ 2 10 км 3/0
[Ac lent]
+18.4 +9.2 55 +19 +19 1013.0 988.3 +21.2
21 16.08 С 1 10 км ясно +13.0 +9.4 79 +13 +13 1014.0 988.8
00 17.08 СВ 1 10 км ясно +11.1 +9.4 89 +11 +11 1014.0 988.7
03 17.08 З 1 4000 м дымка 8/0
[Ac trans]
+10.5 +9.1 91 +10 +10 1014.0 988.6
06 17.08 З 2 10 км 10/0
[Ac und]
+15.6 +9.7 68 +16 +16 1014.0 989.0 +10.3
09 17.08 СЗ 5 10 км 6/0
[Ci fib]
+20.8 +9.7 49 +22 +25 комфорт 1013.0 988.5
12 17.08 З 5 10 км 8/0
[Cs]
+22.3 +9.1 43 +24 +24 комфорт 1013.0 988.6
15 17.08 СЗ 5 10 км 8/0
[Ac trans Ci fib]
+22.2 +8.3 41 +23 +23 комфорт 1013.0 988.6
18 17.08 З 3 10 км ясно +18.8 +9.3 54 +20 +20 1013.0 988.3 +22.5
21 17.08 З 2 10 км ясно +12.7 +9.7 82 +12 +12 1014.0 988.8
00 18.08 СЗ 1 10 км ясно +11.3 +9.2 87 +11 +11 1014.0 988.7
03 18.08 штиль 0 4000 м дымка ясно +9.7 +8.6 93 +9 +9 1014.0 988.5
06 18.08 З 1 10 км ясно +14.9 +11.1 78 +15 +21 1015.0 990.0 +9.5
09 18.08 З 3 10 км 6/6 600 м
[Cu med, cong]
+22.8 +8.5 40 +24 +29 комфорт 1014.0 989.6
12 18.08 СЗ 3 10 км 6/0
[Ci fib]
+24.9 +8.8 36 +25 +29 комфорт 1014.0 989.8
15 18.08 З 3 10 км 3/0
[Ci fib]
+26.6 +9.9 35 +27 +29 жарко 1014.0 990.0
18 18.08 З 2 10 км ясно +20.1 +12.3 61 +23 +23 комфорт 1015.0 990.4 +26.8
21 18.08 штиль 0 10 км ясно +14.3 +11.5 83 +14 +14 1016.0 990.9
00 19.08 штиль 0 10 км ясно +12.1 +10.7 91 +11 +11 1016.0 990.7
03 19.08 штиль 0 4000 м дымка ясно +10.9 +9.7 92 +10 +10 1018.0 992.5
06 19.08 штиль 0 10 км ясно +17.6 +11.8 69 +18 +24 1019.0 994.1 +10.7
09 19.08 штиль 0 10 км 3/0
[Ci fib]
+27.1 +11.5 38 +28 +41 жарко 1018.0 993.9
12 19.08 З 2 10 км 4/0
[Ci fib]
+28.7 +10.8 33 +29 +37 жарко 1018.0 994.0
15 19.08 ЮВ 2 10 км 4/0
[Ci fib]
+28.9 +11.4 34 +30 +31 жарко 1018.0 994.1
18 19.08 ЮВ 1 10 км 3/0
[Ci fib]
+22.8 +14.1 58 +26 +26 жарко 1018.0 993.6 +29.1
21 19.08 штиль 0 10 км ясно +17.0 +13.1 78 +17 +17 1019.0 994.1
00 20.08 штиль 0 10 км ясно +14.7 +12.2 85 +14 +14 1019.0 993.9
03 20.08 штиль 0 4000 м дымка ясно +12.7 +11.4 92 +12 +12 1019.0 993.7
06 20.08 В 1 10 км ясно +20.6 +12.8 61 +24 +30 комфорт 1020.0 995.3 +12.5
09 20.08 СВ 2 10 км ясно +29.0 +10.6 32 +29 +43 жарко 1021.0 997.0
12 20.08 ЮВ 2 10 км ясно +31.6 +11.4 29 +32 +43 жарко 1022.4 998.7
15 20.08 СВ 2 10 км ясно +30.9 +9.7 27 +30 +33 жарко 1021.0 997.1
18 20.08 СВ 1 10 км ясно +22.3 +13.4 57 +25 +25 комфорт 1022.0 997.4 +31.8
21 20.08 штиль 0 10 км ясно +17.1 +12.0 72 +17 +17 1022.0 997.0
00 21.08 штиль 0 10 км ясно +14.4 +11.9 85 +14 +14 1023.0 997.7
03 21.08 штиль 0 10 км ясно +12.5 +10.7 89 +12 +12 1023.0 997.6
06 21.08 Ю 1 10 км ясно +21.6 +13.0 58 +24 +30 комфорт 1023.0 998.4 +12.3
09 21.08 В 2 10 км ясно +29.4 +10.0 30 +29 +43 жарко 1022.0 998.0
12 21.08 ЮВ 3 10 км ясно +31.2 +11.0 29 +31 +41 жарко 1020.0 996.2
15 21.08 В 2 10 км ясно +31.4 +11.2 29 +32 +34 жарко 1019.0 995.2
18 21.08 СВ 1 10 км ясно +23.7 +14.4 56 +26 +26 жарко 1019.0 994.6 +31.7
21 21.08 штиль 0 10 км ясно +18.2 +14.1 77 +18 +18 1020.0 995.2
00 22.08 штиль 0 10 км ясно +15.2 +13.0 87 +15 +15 1020.0 994.9

 

Местоположение метеостанции Гайсин (Винницкая область, Украина): широта 48.80 долгота 29.40 высота над уровнем моря 211 м.

В архиве по умолчанию представлена погода в Гайсине за последнюю неделю. Архивные данные за месяц целиком и за предыдущие месяцы, начиная с января 2011 года, Вы можете получить, выбрав интересующий диапазон дат из раскрывающегося списка и нажав кнопку "Ввод!".


*Определитесь, кто Вы:
робот инопланетянин человек

Внимание! Время в таблицах - всемирное. Для получения местного времени необходимо прибавить поправку, которая равна 2 ч.

Смотрите также архив погоды в соседних городах и на ближайших метеорологических станциях:

Погода в Гайвороне (Кировоградская область, Украина) (61 км)
Погода в Умани (Черкасская область, Украина) (61 км)
Погода в Жашкове (Черкасская область, Украина) (71 км)
Погода в Виннице (Винницкая область, Украина) (75 км)
Погода в Жмеринке (Винницкая область, Украина) (99 км)
Погода в Каменке (Молдова) (100 км)
Погода в Сороках (Молдова) (105 км)
Погода в Звенигородке (Черкасская область, Украина) (114 км)
Погода в Белой Церкви (Киевская область, Украина) (118 км)
Погода в Рыбнице (Молдова) (118 км)

Пояснения к столбцам:

Ветер - указаны скорость ветра в м/с - средняя за 10 мин, порывы в срок и между сроками (в фигурных скобках) и направление, откуда дует ветер: С - северный, СВ - северо-восточный, В - восточный, ЮВ - юго-восточный, Ю - южный, ЮЗ - юго-западный, З - западный, СЗ - северо-западный.
Видимость - горизонтальная дальность видимости в метрах или километрах. При видимости от 1 до 10 км при отсутствии осадков обычно наблюдается дымка, при ухудшении видимости до 1 км и менее - туман. В сухую погоду видимость может ухудшаться дымом, пылью или мглою.
Явления - указаны атмосферные явления, наблюдавшиеся в срок или в последний час перед сроком; фигурными скобками обозначены явления, наблюдавшиеся между сроками (за 1-3 часа до срока); квадратными скобками обозначены град или гололедные отложения с указанием их диаметра в мм.
Облачность - указаны через наклонную черту общая и нижняя облачность в баллах и высота нижней границы облаков в метрах; квадратными скобками обозначены формы облаков: Ci - перистые, Cs - перисто-слоистые, Cc - перисто-кучевые, Ac - высококучевые, As - высокослоистые, Sc - слоисто-кучевые, Ns - слоисто-дождевые, Cu - кучевые, Cb - кучево-дождевые. Подробнее классификацию облаков см. в Атласе облаков (PDF).
T - Температура воздуха - температура, измеренная на высоте 2 м над землей.
Td - Температура точки росы - температура, при понижении до которой содержащийся в воздухе водяной пар достигнет насыщения.
f - Относительная влажность воздуха - влажноcть воздуха, измеренная на высоте 2 м над землей.
Te - Эффективная температура - температура, которую ощущает одетый по сезону человек в тени. Характеристика душности погоды. При расчете учитывается влияние влажности воздуха и скорости ветра на теплоощущения человека.
Tes - Эффективная температура на солнце - температура, которую ощущает человек, с поправкой на солнечный нагрев. Характеристика знойности погоды. Зависит от высоты солнца над горизонтом, облачности и скорости ветра. Ночью, в пасмурную погоду, а также при ветре 12 м/с и более поправка равна нулю.
P - Атмосферное давление - приведенное к уровню моря атмосферное давление.
Po - Атмосферное давление - измеренное на уровне метеостанции атмосферное давление.
Tmin - Минимальная температура - минимум температуры воздуха на высоте 2 м над землей.
Tmax - Максимальная температура - максимум температуры воздуха на высоте 2 м над землей.
R - Количество осадков - Количество выпавших осадков за период времени, мм. При наведении курсора мыши на число - период времени, за который выпало указанное количество осадков.
R24 - Количество осадков - Количество выпавших осадков за 24 часа, мм.
S - Снежный покров - Высота снежного покрова, см. При наведении курсора мыши на число - состояние снежного покрова и степень покрытия местности в баллах.